Погода в Ухте

Погода в Ухте : погода сейчас, прогноз погоды и архив. Всё, что Вы хотите узнать о погоде в Ухте!

Поиск расширенной информации на нашем сайте:

Другие новости

Новости СМИ2

Главная страница сайта

Новости сайта

03.07.2017

Напоминаем, что на нашем специализированном сайте Метеоцентр.Азия вы можете получить высокодетализированные автоматические прогнозы погоды по пунктам России, СНГ и мира в авиационном формате (включающие направление и скорость ветра, видимость, явления погоды, количество и форму облачности, нижнюю и верхнюю границу облачности).


Погода в Ухте - сегодня

Время (UTC), дата Ветер
(°,м/с) 
Видим.   Явления Облачность Т
(°С)
Тd
(°С)
f(%) Тe
(°С)
Pmin
(гПа)
dP
(гПа)
Po
(мм)
O2
(г/м3)
Тmin Tmax R s Состояние
почвы
15 14.10.17 тихо ()   0400 м  туман  ?/?  
+2.3 +2.3 100 +2  1015.1  -0.1  749  299    +2.5       
18 14.10.17 тихо ()   0300 м  туман  ?/?  
+2.4 +2.4 100 +2  1014.9  -0.2  748  299           
21 14.10.17 тихо ()   0400 м  туман  ?/?  
+2.3 +2.3 100 +2  1014.1  -0.7  748  298           
00 15.10.17 тихо ()   0400 м  туман  ?/?  
+1.6 +1.6 100 +2  1012.9  -1.3  747  299           
03 15.10.17 060 (СВ) 5000 м  дымка{туман}  10/10 60 м 
+1.2 +1.2 100 +1  1012.3  -0.6  746  299  +1.2         
06 15.10.17 080 (В) 6000 м  дымка{туман}  10/10 100 м 
[Frnb]
+2.4 +1.6 94 +2  1011.2  -1  746  298           
09 15.10.17 090 (В) 12000 м  в посл. час дождь  10/8 270 м средняя 
[Sc|Ac trans]
+5.2 +4 92 +4  1010.3  -0.7  745  294           
12 15.10.17 090 (В) 12000 м  {дождь}  10/6 450 м средняя 
[Sc|Ac As]
+6.3 +4.2 86 +5  1009.8  -0.4  745  293           
15 15.10.17 100 (В) 10 км    10/8 450 м средняя 
[Sc|Ac As]
+6 +4.4 89 +4  1010  0.1  745  293    +6.3  0.3     
18 15.10.17 090 (В) 10 км    10/3 300 м средняя 
[Sc|Ac trans]
+5 +4.1 94 +4  1010.2  0.1  745  294           
21 15.10.17 090 (В) 10 км    10/0 средняя 
[Ac trans]
+4.4 +3.4 93 +3  1010.6  0.4  745  295           
00 16.10.17 090 (В) 10 км    6/0 средняя 
[Ac trans]
+3.2 +1.9 91 +1  1011.2  0.5  746  297           
03 16.10.17 100 (В) 10 км    10/0 средняя 
[Ac und]
+2   1012.1  0.9  746    +2         
06 16.10.17 130 (ЮВ) 10 км  слаб. ливневой дождь  10/6 600 м кучево-дожд., средняя 
[Cb cap|Ac trans]
+2.6 +1.6 93 +1  1012.5  0.4  747  298  +1.7         
09 16.10.17 120 (ЮВ) 12000 м  {ливн. осадки}  10/8 300 м кучево-дожд., средняя 
[Cb cap|Ac trans]
+4 +3 93 +3  1013  0.6  747  296           
12 16.10.17 120 (ЮВ) 12000 м  {ливн. осадки}  10/4 300 м средняя 
[Sc|Ac trans]
+4.8 +3.3 90 +4  1012.7  -0.2  747  295           
15 16.10.17 120 (ЮВ) 10 км    10/10 360 м 
[Sc]
+4.6 +2.9 89 +3  1012.3  -0.5  747  295    +5  0.3     
18 16.10.17 140 (ЮВ) 10 км    10/10 180 м 
[St]
+4.4 +3.4 93 +3  1010.9  -1.4  746  295           
21 16.10.17 140 (ЮВ) 10 км    10/10 120 м 
[St]
+4.4 +3.7 95 +3  992.3  -1.7  732  289           
00 17.10.17 140 (ЮВ) 10 км  слаб. дождь  10/10 120 м 
[Frnb]
+4.4 +3.9 97 +3  1006.3  -2.8  742  294           
03 17.10.17 120 (ЮВ) 7000 м  слаб. дождь  10/10 100 м 
[Frnb|Ns]
+4.4 +3.9 97 +3  1003.5  -2.7  740  293  +4.3       
06 17.10.17 150 (ЮВ) 12000 м  {дождь}  10/10 150 м 
[Frnb]
+5.2 +4.7 97 +4  1000.2  -3.3  738  291           
09 17.10.17 150 (ЮВ) 12000 м  в посл. час ливневой дождь  10/8 270 м кучево-дожд., средняя 
[Cb cap|Ac As]
+5.8 +5.3 97 +4  997.3  -2.7  736  289           
12 17.10.17 150 (ЮВ) 12000 м  {ливн. осадки}  10/8 300 м средняя 
[Sc|Ac As]
+6.1 +5 93 +4  995.6  -1.7  734  289           
15 17.10.17 150 (ЮВ) 10 км    10/6 300 м средняя 
[Sc|Ac As]
+5.3 +4.6 95 +3  993.7  -1.9  733  289    +6.2  0.5     
Время (UTC), дата Ветер
(°,м/с) 
Видим.   Явления Облачность Т
(°С)
Тd
(°С)
f(%) Тe
(°С)
Pmin
(гПа)
dP
(гПа)
Po
(мм)
O2
(г/м3)
Тmin Tmax R s Состояние
почвы

Для получения пояснительной информации подведите курсор к названию столбца.

ПОГОДА в Ухте - архив

Всё, что Вы хотите узнать о погоде в Ухте - удобно и подробно!

Выберите нужную дату (начиная с 1 января 2015* года) и нажмите кнопку "Найти".
Будут отображены архивные сводки погоды по пункту Ухта, начиная с указанной даты.


Отображать данные в формате CSV (для использования в таблицах Excel)


Внимание! Наш архив погоды предназначен исключительно для личного некоммерческого использования в познавательных целях. Если Вам необходимы официальные справки о состоянии погоды (для производственных, юридических, коммерческих и т.п. целей), обращайтесь в органы Росгидромета.

*Примечание: данная дата относится к архиву по метеостанциям СССР (Россия, СНГ, Балтия).
Архив по метеостанциям Зарубежной Европы и Азии (кроме Китая) хранится 10 дней, по другим регионам земного шара (Китай, Африка, Америка, Австралия, Океания) - 1 день.

Ухта - район местоположения метеостанции


Название, широта, долгота, высота метеостанции:
Ухта 63.6°ш. 53.8°д. 137 м над ур. моря [Российская Федерация]

Дополнительная информация

В oтличие oт бoльшинства пoгoдных сайтoв мы публикуем пoдрoбную метеoинфoрмацию в детальнoм прoфессиoнальнoм фoрмате.

Характеристики температуры и влажнoсти вoздуха измеряются на высoте 2 м в тени вдали oт зданий и деревьев.
Скoрoсть ветра измеряется на высoте 10 м (на урoвне рoста челoвека скoрoсть ветра ниже в 1.5-2 раза). Если метеoстанция нахoдится в гoрoде или в лесу, тo скoрoсть ветра занижена на 2-4 м/с пo сравнению с oткрытым местoм. Скoрoсть ветра над акватoриями крупных рек и oзёр, а также на вершинах хoлмoв на 2-5 м/с выше, чем в oбычных услoвиях.
Атмoсфернoе давление в разных тoчках местнoсти мoжет значительнo oтличаться oт давления на метеoстанции, в зависимoсти oт услoвий рельефа (при пoдъёме на 10 м давление пoнижается примернo на 1 мм рт.ст.).